Location: Artiguedieu
(43.5000°N, 0.5454°E)
Time: 12:01:59
(UTC+00:00)

Cosmos 1269 Rocket - Pass Details

Date: 06 December 2020
Orbit: 773 x 778 km, 74.1° (Epoch: 27 January)

Event Time Altitude Azimuth Distance (km) Brightness Sun altitude
Exits shadow 06:13:40 - 339° (NNW) 3,037 6.7 -11.1°
Reaches altitude 10° 06:15:29 10° 339° (NNW) 2,329 6.1 -10.8°
Maximum altitude 06:20:48 88° 249° (WSW) 780 4.0 -9.9°
Drops below altitude 10° 06:26:03 10° 162° (SSE) 2,312 7.1 -9.0°
Sets 06:28:25 0° 162° (SSE) 3,235 7.9 -8.6°
